Regional Weather Roundup
Issued by NWS Upton, NY

Current Version | Previous Version | Text Only | Print | Product List | Glossary On
Versions: 1 2 3 4 5 6 7 8 9 10 11 12 13 14 15 16 17 18 19 20 21 22 23 24 25 26 27 28 29 30
000 ASUS41 KOKX 250304 RWROKX REGIONAL WEATHER ROUNDUP NATIONAL WEATHER SERVICE NEW YORK NY 1100 PM EDT WED AUG 24 2016 NOTE: "FAIR" INDICATES FEW OR NO CLOUDS BELOW 12,000 FEET WITH NO SIGNIFICANT WEATHER AND/OR OBSTRUCTIONS TO VISIBILITY. NYZ071-072-176-178-NJZ106-104-250400- NEW YORK CITY METRO AREA CITY SKY/WX TMP DP RH WIND PRES REMARKS Central Park N/A 77 63 61 MISG N/A LaGuardia APRT PTCLDY 78 63 59 SW9 30.17R Kennedy INTL PTCLDY 75 69 81 S16G23 30.18S Newark/Liberty PTCLDY 75 63 66 S9 30.18R Bronx Bot Gard N/A 75 61 60 S5 30.19R Wall St Helipt CLEAR 75 64 69 W8 30.19R Teterboro CLEAR 74 63 68 S5 30.16S $$ NYZ177-179-078>081-250400- LONG ISLAND NEW YORK CITY SKY/WX TMP DP RH WIND PRES REMARKS Farmingdale CLEAR 75 65 70 SW8 30.19S MacArthur/ISP PTCLDY 73 65 75 SW8 30.18F Shirley NOT AVBL Riverhead NOT AVBL Westhampton CLEAR 71 65 81 S5 30.21F Southampton N/A 72 68 88 SW6 30.15F Bridgehampton N/A 68 64 88 CALM 30.18F East Hampton FAIR 70 65 85 SW7 30.18F Montauk N/A 72 67 84 VRB6 30.20F $$ NYZ052-065-067-250400- HUDSON VALLEY CITY SKY/WX TMP DP RH WIND PRES REMARKS White Plains CLEAR 70 64 81 S3 30.18S Newburgh CLEAR 72 64 78 SW6 30.18R Montgomery CLEAR 66 63 90 SW3 30.17R Poughkeepsie CLEAR 73 63 70 SE3 30.15S Albany MOCLDY 74 61 63 S7 30.12S $$ NJZ001-105-106-008-010-013-015-019>022-104-250400- NEW JERSEY CITY SKY/WX TMP DP RH WIND PRES REMARKS Newark/Liberty PTCLDY 75 63 66 S9 30.18R Teterboro CLEAR 74 63 68 S5 30.16S Caldwell CLEAR 74 62 66 CALM 30.18R Morristown CLEAR 63 63 100 CALM 30.18R Somerville CLEAR 65 62 90 CALM 30.16S Linden FAIR 74 60 61 CALM 30.20R Sussex CLEAR 65 64 97 CALM 30.18R Abdover N/A 64 62 93 CALM 30.20R Trenton CLEAR 72 61 68 S8 30.19S Millville CLEAR 70 65 84 CALM 30.21S Atlantic City CLEAR 71 63 75 SW3 30.21S Wrightstown CLEAR 68 62 80 SW6 30.18S Toms River CLEAR 67 61 81 SW5 30.20F Belmar CLEAR 71 60 68 S6 30.21S $$ PAZ047>061-062-071-250400- EASTERN PENNSYLVANIA CITY SKY/WX TMP DP RH WIND PRES REMARKS Philadelphia PTCLDY 73 63 70 S9 30.20S Allentown CLEAR 72 61 68 SW7 30.19R Scranton PTCLDY 73 63 70 VRB6G17 30.17F $$ CTZ002-004>006-009-010-012-RIZ004-006-007-MAZ004-011-015-250400- SOUTHERN NEW ENGLAND IN CT CITY SKY/WX TMP DP RH WIND PRES REMARKS Bradley INTL CLEAR 72 61 68 S7 30.16F Hartford CLEAR 74 64 71 S5 30.16S Danbury CLEAR 69 61 75 S8 30.19S Wtrbury/Oxford N/A 68 59 73 S6 30.20F Bridgeport CLEAR 77 65 66 SW13 30.17F Meriden CLEAR 71 63 75 S3 30.17F New Haven CLEAR 74 65 73 VRB6 30.18F Chester FAIR 72 66 83 SW7 30.19S Groton CLEAR 73 67 81 SW8 30.17F Wilimantic CLEAR 68 64 87 CALM 30.19S IN RI CITY SKY/WX TMP DP RH WIND PRES REMARKS Providence CLEAR 71 62 73 SW6 30.17F Block Island CLEAR 71 67 87 SW10 30.19F Westerly CLEAR 72 65 78 SW6 30.19F IN MA CITY SKY/WX TMP DP RH WIND PRES REMARKS Boston CLEAR 75 61 61 SW15 30.15F Worcester CLEAR 67 58 72 SW10 30.19F Westfield CLEAR 68 62 81 S3 30.16S Provincetown CLEAR 69 66 90 S8 30.17F Nantucket CLOUDY 70 67 90 SW10 30.19F $$ ANZ330-335-338-340-345-350-353-355-250400- COASTAL MARINE OBSERVATIONS STATION/POSITION TIME SKY/WX TEMP WIND PRES VSBY WAVE AIR SEA DIR/SP/G HT/PER (UTC) (F) (DEG/KT/KT) (MB) (MI) (FT/S) NY HARB ENTRANCE 0150 76 77 200/ 16/ 19 1021.8 3/ 4 20S FIRE ISLAND 0150 76 76 200/ 16/ 17 1022.2 3/11 GREAT SOUTH BAY 0200 76 79 220/ 12/ 16 N/A 23 SSW MONTAUK P 0150 76 74 210/ 12/ 14 1023.2 2/11 15 E BARNEGAT LI 0200 76 N/A 3/11 HUDSON CANYON 0150 76 78 1023.5 2/11 KINGS POINT 0200 76 77 1021.5 EXECUTION ROCKS 0200 75 180/ 10/ 14 N/A CENTRAL LI SOUND 0200 75 76 200/ 16/ 17 N/A 2/ 3 EASTERN LI SOUND 0200 72 70 220/ 10/ 12 N/A ROBBINS REEF 0200 76 1021.0 $$ >>>>>>>>>>>>>>>>>>>>>>>>>>>> KEY <<<<<<<<<<<<<<<<<<<<<<<<<<< > < > SKY/WX - Sky Condition/Present Weather < > TMP - Temperature in Fahrenheit < > DP - Dew Point in Fahrenheit < > RH - Relative Humidity in Percent < > WIND - Direction (from) and Speed in MPH < > PRES - Mean Sea Level Pressure (inches of Hg) < > WCI - Wind Chill Index < > VSB - VISIBILITY IN MILES < > HX - HEAT INDEX < > TC - TEMPERATURE IN CELSIUS < > VRB - VARIABLE WIND DIRECTION < > < >>>>>>>>>>>>>>>>>>>>>>>>>>>> KEY <<<<<<<<<<<<<<<<<<<<<<<<<<<

USA.gov is the U.S. government's official web portal to all federal, state and local government web resources and services.